Weather History for Tekamah, NE

Change the Weather History Date:

Saturday, April 14, 2012

  Actual Average Record
Temperature  
Mean Temperature 54 °F -  
Max Temperature 70 °F 59 °F 90 °F (1954)
Min Temperature 39 °F 37 °F 20 °F (1950)
Degree Days  
Heating Degree Days 11    
Growing Degree Days 4 (Base 50)    
Moisture  
Dew Point 53 °F    
Average Humidity 88    
Maximum Humidity 100    
Minimum Humidity 73    
Precipitation  
Precipitation 0.27 in - - ()
Sea Level Pressure  
Sea Level Pressure 29.66 in    
Wind  
Wind Speed 9 mph (SE)    
Max Wind Speed 26 mph    
Max Gust Speed 34 mph    
Visibility 5 miles    
Events Fog , Rain , Thunderstorm    
Averages and records for this station are not official NWS values.
T = Trace of Precipitation, MM = Missing Value Source: NWS Daily Summary

Daily Weather History Graph

Daily Weather History Graph

Search for Another Location

Airport:

Trip Planner

Search our weather history database for the weather conditions in past years. The results will help you decide how hot, cold, wet, or windy it might be!

Date:

Astronomy

Apr. 14, 2012 Rise Set
Actual Time 6:45 AM CDT 8:05 PM CDT
Civil Twilight 6:16 AM CDT 8:33 PM CDT
Nautical Twilight 5:41 AM CDT 9:08 PM CDT
Astronomical Twilight 5:05 AM CDT 9:45 PM CDT
Moon 3:14 AM CDT (4/14) 1:54 PM CDT (4/14)
Length of Visible Light 14h 17m
Length of Day
13h 19m
Last Quarter, 37% of the Moon is Illuminated
Apr 14
Last Quarter
Apr 21
New
Apr 29
First Quarter
May 5
Full
May 12
Last Quarter

Hourly Weather History & Observations

Time (CDT) Temp. Windchill Dew Point Humidity Pressure Visibility Wind Dir Wind Speed Gust Speed Precip Events Conditions
12:54 AM 48.0 °F - 45.0 °F 89% 29.80 in 10.0 mi SSE 8.1 mph - N/A   Clear
1:54 AM 46.9 °F - 45.0 °F 93% 29.81 in 10.0 mi Calm Calm - N/A   Clear
2:54 AM 45.0 °F 43.5 °F 43.0 °F 93% 29.80 in 8.0 mi NNE 3.5 mph - N/A   Clear
3:54 AM 43.0 °F 40.3 °F 41.0 °F 93% 29.79 in 8.0 mi NNW 4.6 mph - N/A   Clear
4:54 AM 44.1 °F 41.5 °F 42.1 °F 93% 29.78 in 6.0 mi NNW 4.6 mph - N/A   Clear
5:54 AM 41.0 °F 38.0 °F 39.9 °F 96% 29.76 in 5.0 mi North 4.6 mph - N/A   Clear
6:54 AM 39.9 °F - 37.9 °F 93% 29.78 in 3.0 mi Calm Calm - N/A   Clear
7:06 AM 39.2 °F - 37.4 °F 93% 29.78 in 1.5 mi Calm Calm - N/A   Clear
7:14 AM 39.2 °F - 37.4 °F 93% 29.78 in 0.5 mi Calm Calm - N/A Fog Fog
7:24 AM 41.0 °F - 39.2 °F 93% 29.78 in 2.0 mi Calm Calm - N/A   Clear
7:36 AM 42.8 °F - 39.2 °F 87% 29.79 in 3.0 mi Calm Calm - N/A   Clear
7:54 AM 45.0 °F - 43.0 °F 93% 29.79 in 4.0 mi Calm Calm - N/A   Clear
8:04 AM 46.4 °F 44.3 °F 44.6 °F 93% 29.80 in 3.0 mi SSW 4.6 mph - N/A   Scattered Clouds
8:07 AM 46.4 °F 43.5 °F 44.6 °F 93% 29.81 in 0.5 mi South 5.8 mph - N/A Fog Fog
8:54 AM 48.9 °F - 48.9 °F 100% 29.79 in 0.2 mi SSE 4.6 mph - N/A Fog Fog
9:54 AM 55.0 °F - 54.0 °F 96% 29.80 in 0.2 mi South 10.4 mph - N/A Fog Fog
10:39 AM 59.0 °F - 57.2 °F 94% 29.79 in 1.0 mi ESE 9.2 mph - N/A   Overcast
10:54 AM 59.0 °F - 57.9 °F 96% 29.76 in 1.8 mi ESE 9.2 mph - N/A   Overcast
11:10 AM 60.8 °F - 57.2 °F 88% 29.77 in 2.0 mi ESE 9.2 mph - N/A   Overcast
11:20 AM 60.8 °F - 57.2 °F 88% 29.75 in 3.0 mi East 10.4 mph - N/A   Overcast
11:37 AM 66.2 °F - 59.0 °F 78% 29.73 in 4.0 mi ESE 11.5 mph - N/A   Haze
11:54 AM 69.1 °F - 60.1 °F 73% 29.70 in 6.0 mi ESE 13.8 mph - N/A   Haze
12:40 PM 68.0 °F - 60.8 °F 78% 29.71 in 6.0 mi SE 23.0 mph 26.5 mph N/A   Haze
12:54 PM 66.9 °F - 59.0 °F 76% 29.67 in 6.0 mi ESE 18.4 mph - N/A   Haze
1:33 PM 66.2 °F - 60.8 °F 83% 29.64 in 2.0 mi SE 25.3 mph 29.9 mph 0.01 in Rain Light Rain
1:42 PM 64.4 °F - 60.8 °F 88% 29.63 in 4.0 mi ESE 26.5 mph 32.2 mph 0.01 in Rain Light Rain
1:54 PM 64.9 °F - 61.0 °F 87% 29.61 in 4.0 mi ESE 26.5 mph 34.5 mph 0.01 in   Overcast
2:18 PM 64.4 °F - 62.6 °F 94% 29.61 in 3.0 mi SE 20.7 mph 28.8 mph 0.00 in Rain Light Rain
2:54 PM 64.9 °F - 61.0 °F 87% 29.58 in 4.0 mi SE 25.3 mph 34.5 mph 0.00 in   Overcast
3:54 PM 64.0 °F - 61.0 °F 90% 29.59 in 5.0 mi SE 13.8 mph - N/A   Overcast
4:20 PM 62.6 °F - 60.8 °F 94% 29.60 in 5.0 mi SSE 13.8 mph - 0.01 in Rain Light Rain
4:49 PM 62.6 °F - 59.0 °F 88% 29.61 in 2.0 mi SW 8.1 mph - 0.09 in Rain Heavy Rain
4:54 PM 64.0 °F - 57.9 °F 80% 29.60 in 2.5 mi Variable 4.6 mph - 0.09 in Rain Light Rain
5:01 PM 62.6 °F - 57.2 °F 82% 29.61 in 4.0 mi SE 12.7 mph - 0.01 in Rain Light Rain
5:12 PM 62.6 °F - 57.2 °F 82% 29.63 in 5.0 mi SSE 12.7 mph - 0.02 in Rain , Thunderstorm Light Rain
5:27 PM 62.6 °F - 57.2 °F 82% 29.66 in 3.0 mi South 9.2 mph - 0.05 in Rain Rain
5:35 PM 62.6 °F - 57.2 °F 82% 29.65 in 2.5 mi Calm Calm - 0.08 in Rain Rain
5:47 PM 60.8 °F - 57.2 °F 88% 29.57 in 1.5 mi NE 15.0 mph - 0.14 in Rain Heavy Rain
5:54 PM 60.1 °F - 57.9 °F 93% 29.51 in 2.0 mi ENE 21.9 mph 26.5 mph 0.15 in Rain Rain
5:57 PM 60.8 °F - 57.2 °F 88% 29.51 in 3.0 mi ENE 23.0 mph - 0.00 in Rain Light Rain
6:54 PM 61.0 °F - 55.9 °F 83% 29.47 in 10.0 mi East 17.3 mph - 0.01 in   Clear
7:54 PM 60.1 °F - 55.9 °F 86% 29.47 in 10.0 mi SE 11.5 mph 20.7 mph N/A Thunderstorm Overcast
8:05 PM 60.8 °F - 55.4 °F 82% 29.50 in 10.0 mi South 10.4 mph - N/A Thunderstorm Overcast
8:41 PM 60.8 °F - 55.4 °F 82% 29.49 in 10.0 mi SE 15.0 mph - 0.00 in   Overcast
8:54 PM 60.1 °F - 55.9 °F 86% 29.45 in 10.0 mi ESE 15.0 mph - 0.00 in   Overcast
9:54 PM 60.1 °F - 55.9 °F 86% 29.44 in 10.0 mi ESE 13.8 mph - N/A   Overcast
10:54 PM 59.0 °F - 55.0 °F 87% 29.43 in 10.0 mi SE 16.1 mph - N/A   Mostly Cloudy
11:16 PM 59.0 °F - 53.6 °F 82% 29.44 in 10.0 mi SE 17.3 mph - N/A   Overcast
11:54 PM 61.0 °F - 55.9 °F 83% 29.44 in 10.0 mi SSE 15.0 mph - 0.01 in Rain , Thunderstorm Light Rain